Time,TemperatureF,DewpointF,PressureIn,WindDirection,WindDirectionDegrees,WindSpeedMPH,WindSpeedGustMPH,Humidity,HourlyPrecipIn,Conditions,Clouds,dailyrainin,SolarRadiationWatts/m^2,SoftwareType,DateUTC
2013-03-29 00:04:00,35.4,19.0,30.31,North,360,0.0,0.0,54,0.00,,,0.00,0,TxWx,2013-03-29 05:04:00,
2013-03-29 00:09:00,35.4,19.0,30.31,NW,326,1.2,1.5,55,0.00,,,0.00,0,TxWx,2013-03-29 05:09:00,
2013-03-29 00:14:00,35.3,19.0,30.31,NW,326,0.0,0.3,55,0.00,,,0.00,0,TxWx,2013-03-29 05:14:00,
2013-03-29 00:19:00,35.2,19.0,30.31,NW,326,0.6,0.6,55,0.00,,,0.00,0,TxWx,2013-03-29 05:19:00,
2013-03-29 00:25:00,35.0,20.0,30.31,NW,326,0.0,0.0,56,0.00,,,0.00,0,TxWx,2013-03-29 05:25:00,
2013-03-29 00:30:00,34.7,20.0,30.31,NW,326,0.0,0.0,56,0.00,,,0.00,0,TxWx,2013-03-29 05:30:00,
2013-03-29 00:35:00,34.3,19.0,30.31,NW,326,0.0,0.3,57,0.00,,,0.00,0,TxWx,2013-03-29 05:35:00,
2013-03-29 00:40:00,34.2,19.0,30.31,NW,326,0.0,0.0,57,0.00,,,0.00,0,TxWx,2013-03-29 05:40:00,
2013-03-29 00:45:00,34.0,20.0,30.31,NW,326,0.6,0.6,59,0.00,,,0.00,0,TxWx,2013-03-29 05:45:00,
2013-03-29 00:51:00,34.0,20.0,30.31,NW,326,0.0,0.0,59,0.00,,,0.00,0,TxWx,2013-03-29 05:51:00,
2013-03-29 00:56:00,33.9,21.0,30.31,NW,326,0.6,0.9,60,0.00,,,0.00,0,TxWx,2013-03-29 05:56:00,
2013-03-29 01:01:00,33.8,21.0,30.31,NW,326,0.3,0.6,60,0.00,,,0.00,0,TxWx,2013-03-29 06:01:00,
2013-03-29 01:06:00,33.6,21.0,30.31,NW,326,0.3,0.6,61,0.00,,,0.00,0,TxWx,2013-03-29 06:06:00,
2013-03-29 01:11:00,33.5,20.0,30.31,NW,326,0.0,0.0,61,0.00,,,0.00,0,TxWx,2013-03-29 06:11:00,
2013-03-29 01:16:00,33.2,20.0,30.31,NW,326,0.6,0.6,62,0.00,,,0.00,0,TxWx,2013-03-29 06:16:00,
2013-03-29 01:22:00,33.1,20.0,30.31,NW,326,0.6,0.6,62,0.00,,,0.00,0,TxWx,2013-03-29 06:22:00,
2013-03-29 01:27:00,32.9,21.0,30.31,NW,325,0.0,0.3,63,0.00,,,0.00,0,TxWx,2013-03-29 06:27:00,
2013-03-29 01:32:00,32.7,21.0,30.31,NW,325,0.6,0.6,64,0.00,,,0.00,0,TxWx,2013-03-29 06:32:00,
2013-03-29 01:37:00,32.8,21.0,30.31,NW,325,0.0,0.0,64,0.00,,,0.00,0,TxWx,2013-03-29 06:37:00,
2013-03-29 01:42:00,33.0,21.0,30.31,NW,325,0.3,0.3,64,0.00,,,0.00,0,TxWx,2013-03-29 06:42:00,
2013-03-29 01:47:00,33.2,21.0,30.31,WSW,239,0.3,0.6,63,0.00,,,0.00,0,TxWx,2013-03-29 06:47:00,
2013-03-29 01:52:00,33.2,21.0,30.31,WSW,240,0.0,0.0,63,0.00,,,0.00,0,TxWx,2013-03-29 06:52:00,
2013-03-29 01:57:00,33.0,20.0,30.31,SW,234,1.2,1.2,62,0.00,,,0.00,0,TxWx,2013-03-29 06:57:00,
2013-03-29 02:02:00,32.8,20.0,30.31,SW,223,0.0,0.0,62,0.00,,,0.00,0,TxWx,2013-03-29 07:02:00,
2013-03-29 02:08:00,32.5,20.0,30.30,SW,223,1.5,1.5,65,0.00,,,0.00,0,TxWx,2013-03-29 07:08:00,
2013-03-29 02:13:00,32.6,21.0,30.30,North,11,1.2,1.5,64,0.00,,,0.00,0,TxWx,2013-03-29 07:13:00,
2013-03-29 02:18:00,32.8,21.0,30.30,North,11,0.0,0.0,64,0.00,,,0.00,0,TxWx,2013-03-29 07:18:00,
2013-03-29 02:23:00,32.8,21.0,30.30,NNE,12,0.3,0.3,64,0.00,,,0.00,0,TxWx,2013-03-29 07:23:00,
2013-03-29 02:28:00,32.8,21.0,30.30,NW,321,1.2,1.2,64,0.00,,,0.00,0,TxWx,2013-03-29 07:28:00,
2013-03-29 02:33:00,33.1,21.0,30.30,NW,317,0.0,0.0,64,0.00,,,0.00,0,TxWx,2013-03-29 07:33:00,
2013-03-29 02:39:00,33.1,21.0,30.30,NW,317,0.0,0.0,64,0.00,,,0.00,0,TxWx,2013-03-29 07:39:00,
2013-03-29 02:44:00,33.2,21.0,30.30,NW,317,0.0,0.0,64,0.00,,,0.00,0,TxWx,2013-03-29 07:44:00,
2013-03-29 02:49:00,33.3,21.0,30.30,NW,317,0.0,0.0,64,0.00,,,0.00,0,TxWx,2013-03-29 07:49:00,
2013-03-29 02:54:00,33.5,20.0,30.30,NW,318,0.9,0.9,62,0.00,,,0.00,0,TxWx,2013-03-29 07:54:00,
2013-03-29 03:00:00,33.9,22.0,30.30,North,351,0.0,0.0,63,0.00,,,0.00,0,TxWx,2013-03-29 08:00:00,
2013-03-29 03:05:00,34.3,21.0,30.30,NW,310,0.0,0.0,60,0.00,,,0.00,0,TxWx,2013-03-29 08:05:00,
2013-03-29 03:10:00,34.6,21.0,30.30,WNW,299,0.6,0.9,59,0.00,,,0.00,0,TxWx,2013-03-29 08:10:00,
2013-03-29 03:15:00,34.8,21.0,30.30,WNW,298,0.0,0.0,59,0.00,,,0.00,0,TxWx,2013-03-29 08:15:00,
2013-03-29 03:20:00,34.9,21.0,30.30,WNW,293,0.3,0.3,60,0.00,,,0.00,0,TxWx,2013-03-29 08:20:00,
2013-03-29 03:25:00,35.1,21.0,30.30,WNW,299,0.9,0.9,58,0.00,,,0.00,0,TxWx,2013-03-29 08:25:00,
2013-03-29 03:31:00,35.2,22.0,30.29,WNW,299,0.9,0.9,60,0.00,,,0.00,0,TxWx,2013-03-29 08:31:00,
2013-03-29 03:36:00,35.2,21.0,30.30,WNW,288,0.0,0.0,60,0.00,,,0.00,0,TxWx,2013-03-29 08:36:00,
2013-03-29 03:41:00,35.2,21.0,30.29,NNW,332,0.9,0.9,59,0.00,,,0.00,0,TxWx,2013-03-29 08:41:00,
2013-03-29 03:46:00,35.4,20.0,30.29,NNW,333,0.0,0.0,57,0.00,,,0.00,0,TxWx,2013-03-29 08:46:00,
2013-03-29 03:51:00,35.9,20.0,30.30,WNW,286,2.1,2.1,55,0.00,,,0.00,0,TxWx,2013-03-29 08:51:00,
2013-03-29 03:57:00,36.1,20.0,30.30,West,270,3.0,3.3,54,0.00,,,0.00,0,TxWx,2013-03-29 08:57:00,
2013-03-29 04:02:00,36.4,19.0,30.30,NW,315,2.4,2.4,52,0.00,,,0.00,0,TxWx,2013-03-29 09:02:00,
2013-03-29 04:07:00,36.4,20.0,30.30,West,275,0.0,0.3,53,0.00,,,0.00,0,TxWx,2013-03-29 09:07:00,
2013-03-29 04:12:00,36.0,20.0,30.29,NNW,344,1.5,1.5,54,0.00,,,0.00,0,TxWx,2013-03-29 09:12:00,
2013-03-29 04:17:00,35.8,19.0,30.29,NNW,345,0.9,1.2,52,0.00,,,0.00,0,TxWx,2013-03-29 09:17:00,
2013-03-29 04:22:00,35.7,19.0,30.29,NNW,333,0.0,0.0,53,0.00,,,0.00,0,TxWx,2013-03-29 09:22:00,
2013-03-29 04:27:00,35.5,18.0,30.29,NNW,333,0.6,0.6,52,0.00,,,0.00,0,TxWx,2013-03-29 09:27:00,
2013-03-29 04:33:00,35.3,18.0,30.29,NNW,333,0.0,0.0,53,0.00,,,0.00,0,TxWx,2013-03-29 09:33:00,
2013-03-29 04:38:00,35.1,19.0,30.28,NNW,333,0.0,0.0,53,0.00,,,0.00,0,TxWx,2013-03-29 09:38:00,
2013-03-29 04:43:00,35.0,19.0,30.28,NNW,334,0.9,1.2,54,0.00,,,0.00,0,TxWx,2013-03-29 09:43:00,
2013-03-29 04:48:00,35.0,19.0,30.28,NNW,334,0.6,0.9,55,0.00,,,0.00,0,TxWx,2013-03-29 09:48:00,
2013-03-29 04:53:00,35.0,19.0,30.28,NNE,14,1.5,1.5,55,0.00,,,0.00,0,TxWx,2013-03-29 09:53:00,
2013-03-29 04:58:00,35.0,19.0,30.28,NW,321,0.9,0.9,55,0.00,,,0.00,0,TxWx,2013-03-29 09:58:00,
2013-03-29 05:03:00,35.0,20.0,30.28,NW,321,0.0,0.0,56,0.00,,,0.00,0,TxWx,2013-03-29 10:03:00,
2013-03-29 05:09:00,34.9,19.0,30.28,North,354,0.9,1.2,54,0.00,,,0.00,0,TxWx,2013-03-29 10:09:00,
2013-03-29 05:14:00,34.9,19.0,30.28,NNE,14,0.9,1.2,54,0.00,,,0.00,0,TxWx,2013-03-29 10:14:00,
2013-03-29 05:19:00,34.9,19.0,30.28,North,11,1.5,1.5,55,0.00,,,0.00,0,TxWx,2013-03-29 10:19:00,
2013-03-29 05:24:00,34.7,19.0,30.29,North,11,0.0,0.0,55,0.00,,,0.00,0,TxWx,2013-03-29 10:24:00,
2013-03-29 05:29:00,34.5,19.0,30.28,North,11,0.3,0.3,56,0.00,,,0.00,0,TxWx,2013-03-29 10:29:00,
2013-03-29 05:34:00,34.1,19.0,30.28,North,11,0.3,0.3,57,0.00,,,0.00,0,TxWx,2013-03-29 10:34:00,
2013-03-29 05:39:00,33.9,19.0,30.28,North,357,1.2,1.2,56,0.00,,,0.00,0,TxWx,2013-03-29 10:39:00,
2013-03-29 05:44:00,34.2,19.0,30.29,NNW,337,0.6,0.9,56,0.00,,,0.00,0,TxWx,2013-03-29 10:44:00,
2013-03-29 05:50:00,34.2,19.0,30.29,NNW,334,0.6,0.6,56,0.00,,,0.00,0,TxWx,2013-03-29 10:50:00,
2013-03-29 05:55:00,34.2,19.0,30.29,NNW,334,0.0,0.0,57,0.00,,,0.00,0,TxWx,2013-03-29 10:55:00,
2013-03-29 06:00:00,33.7,20.0,30.29,NNW,334,0.0,0.0,58,0.00,,,0.00,0,TxWx,2013-03-29 11:00:00,
2013-03-29 06:05:00,33.6,20.0,30.29,NNW,334,0.0,0.0,58,0.00,,,0.00,0,TxWx,2013-03-29 11:05:00,
2013-03-29 06:10:00,33.4,19.0,30.29,NNW,334,0.0,0.0,59,0.00,,,0.00,0,TxWx,2013-03-29 11:10:00,
2013-03-29 06:16:00,33.1,19.0,30.29,NNW,334,0.0,0.0,59,0.00,,,0.00,0,TxWx,2013-03-29 11:16:00,
2013-03-29 06:21:00,32.7,20.0,30.30,NNW,334,0.3,0.3,61,0.00,,,0.00,0,TxWx,2013-03-29 11:21:00,
2013-03-29 06:26:00,32.5,20.0,30.30,NNW,334,0.0,0.0,62,0.00,,,0.00,0,TxWx,2013-03-29 11:26:00,
2013-03-29 06:32:00,32.4,20.0,30.30,NNW,342,1.5,1.5,65,0.00,,,0.00,2,TxWx,2013-03-29 11:32:00,
2013-03-29 06:37:00,32.5,20.0,30.29,NNE,18,1.5,1.5,65,0.00,,,0.00,5,TxWx,2013-03-29 11:37:00,
2013-03-29 06:42:00,32.5,21.0,30.29,NNE,16,0.3,0.6,64,0.00,,,0.00,14,TxWx,2013-03-29 11:42:00,
2013-03-29 06:47:00,32.4,20.0,30.30,NNE,16,0.0,0.0,64,0.00,,,0.00,22,TxWx,2013-03-29 11:47:00,
2013-03-29 06:52:00,32.2,20.0,30.30,NNE,16,0.3,0.3,64,0.00,,,0.00,36,TxWx,2013-03-29 11:52:00,
2013-03-29 06:58:00,32.3,20.0,30.30,NNE,16,0.0,0.0,65,0.00,,,0.00,50,TxWx,2013-03-29 11:58:00,
2013-03-29 07:03:00,32.5,20.0,30.30,NNE,16,1.2,1.5,65,0.00,,,0.00,70,TxWx,2013-03-29 12:03:00,
2013-03-29 07:08:00,32.8,21.0,30.30,NNE,15,0.3,0.3,63,0.00,,,0.00,92,TxWx,2013-03-29 12:08:00,
2013-03-29 07:13:00,33.3,20.0,30.31,NNE,15,0.0,0.0,62,0.00,,,0.00,109,TxWx,2013-03-29 12:13:00,
2013-03-29 07:18:00,33.8,21.0,30.31,NNE,15,0.0,0.0,61,0.00,,,0.00,126,TxWx,2013-03-29 12:18:00,
2013-03-29 07:24:00,34.5,22.0,30.31,NNE,15,0.0,0.0,61,0.00,,,0.00,145,TxWx,2013-03-29 12:24:00,
2013-03-29 07:29:00,35.1,21.0,30.31,NNE,15,0.9,0.9,59,0.00,,,0.00,165,TxWx,2013-03-29 12:29:00,
2013-03-29 07:34:00,35.8,22.0,30.31,NNE,15,0.0,0.0,59,0.00,,,0.00,180,TxWx,2013-03-29 12:34:00,
2013-03-29 07:39:00,36.2,21.0,30.31,NNE,15,0.0,0.0,58,0.00,,,0.00,196,TxWx,2013-03-29 12:39:00,
2013-03-29 07:44:00,37.1,22.0,30.32,NNE,15,0.0,0.0,57,0.00,,,0.00,213,TxWx,2013-03-29 12:44:00,
2013-03-29 07:49:00,37.7,22.0,30.31,NW,307,0.6,0.6,54,0.00,,,0.00,228,TxWx,2013-03-29 12:49:00,
2013-03-29 07:54:00,39.0,23.0,30.31,NW,307,0.0,0.0,56,0.00,,,0.00,203,TxWx,2013-03-29 12:54:00,
2013-03-29 08:00:00,40.5,23.0,30.31,WNW,298,0.0,0.3,52,0.00,,,0.00,258,TxWx,2013-03-29 13:00:00,
2013-03-29 08:05:00,41.9,23.0,30.31,West,279,0.0,0.0,48,0.00,,,0.00,281,TxWx,2013-03-29 13:05:00,
2013-03-29 08:10:00,42.8,21.0,30.31,North,5,1.8,1.8,43,0.00,,,0.00,310,TxWx,2013-03-29 13:10:00,
2013-03-29 08:15:00,42.9,21.0,30.31,NNW,332,0.9,1.2,43,0.00,,,0.00,217,TxWx,2013-03-29 13:15:00,
2013-03-29 08:21:00,43.0,20.0,30.31,North,360,1.2,1.5,42,0.00,,,0.00,264,TxWx,2013-03-29 13:21:00,
2013-03-29 08:26:00,43.0,20.0,30.32,NW,310,0.6,0.6,41,0.00,,,0.00,362,TxWx,2013-03-29 13:26:00,
2013-03-29 08:31:00,43.6,20.0,30.31,NE,35,1.8,1.8,41,0.00,,,0.00,370,TxWx,2013-03-29 13:31:00,
2013-03-29 08:36:00,44.2,20.0,30.32,NE,44,0.0,0.0,40,0.00,,,0.00,381,TxWx,2013-03-29 13:36:00,
2013-03-29 08:42:00,44.7,19.0,30.32,North,11,3.0,3.3,37,0.00,,,0.00,386,TxWx,2013-03-29 13:42:00,
2013-03-29 08:47:00,44.3,17.0,30.32,NW,307,1.8,2.1,36,0.00,,,0.00,408,TxWx,2013-03-29 13:47:00,
2013-03-29 08:52:00,44.5,19.0,30.32,North,11,3.6,3.9,36,0.00,,,0.00,421,TxWx,2013-03-29 13:52:00,
2013-03-29 08:57:00,44.7,19.0,30.32,NW,305,3.0,3.0,36,0.00,,,0.00,438,TxWx,2013-03-29 13:57:00,
2013-03-29 09:02:00,44.6,18.0,30.32,NE,40,2.7,3.0,35,0.00,,,0.00,457,TxWx,2013-03-29 14:02:00,
2013-03-29 09:07:00,44.6,18.0,30.32,NNE,25,3.3,3.6,36,0.00,,,0.00,478,TxWx,2013-03-29 14:07:00,
2013-03-29 09:12:00,44.3,16.0,30.32,ENE,70,4.5,4.5,33,0.00,,,0.00,506,TxWx,2013-03-29 14:12:00,
2013-03-29 09:18:00,44.7,18.0,30.32,North,354,2.4,2.4,36,0.00,,,0.00,395,TxWx,2013-03-29 14:18:00,
2013-03-29 09:23:00,44.8,18.0,30.32,NNE,33,1.8,2.1,35,0.00,,,0.00,338,TxWx,2013-03-29 14:23:00,
2013-03-29 09:28:00,44.9,17.0,30.32,ENE,76,3.6,3.9,34,0.00,,,0.00,377,TxWx,2013-03-29 14:28:00,
2013-03-29 09:33:00,44.9,17.0,30.32,NNW,335,1.8,1.8,34,0.00,,,0.00,343,TxWx,2013-03-29 14:33:00,
2013-03-29 09:38:00,45.0,17.0,30.32,East,79,0.9,0.9,34,0.00,,,0.00,341,TxWx,2013-03-29 14:38:00,
2013-03-29 09:43:00,45.2,17.0,30.32,North,9,4.2,4.2,34,0.00,,,0.00,355,TxWx,2013-03-29 14:43:00,
2013-03-29 09:48:00,45.0,17.0,30.32,NNE,17,5.1,5.1,34,0.00,,,0.00,401,TxWx,2013-03-29 14:48:00,
2013-03-29 09:53:00,45.1,17.0,30.32,NE,43,4.5,4.8,33,0.00,,,0.00,392,TxWx,2013-03-29 14:53:00,
2013-03-29 09:58:00,45.2,16.0,30.32,WNW,299,3.9,3.9,32,0.00,,,0.00,454,TxWx,2013-03-29 14:58:00,
2013-03-29 10:03:00,45.8,18.0,30.32,NW,324,2.4,3.0,34,0.00,,,0.00,399,TxWx,2013-03-29 15:03:00,
2013-03-29 10:08:00,45.7,16.0,30.32,NE,38,6.3,6.3,32,0.00,,,0.00,766,TxWx,2013-03-29 15:08:00,
2013-03-29 10:14:00,46.2,18.0,30.32,North,359,0.9,0.9,34,0.00,,,0.00,738,TxWx,2013-03-29 15:14:00,
2013-03-29 10:19:00,47.0,17.0,30.32,WNW,301,1.8,1.8,32,0.00,,,0.00,561,TxWx,2013-03-29 15:19:00,
2013-03-29 10:24:00,46.5,16.0,30.32,NE,35,3.9,3.9,31,0.00,,,0.00,458,TxWx,2013-03-29 15:24:00,
2013-03-29 10:29:00,45.8,16.0,30.32,NE,41,4.8,4.8,31,0.00,,,0.00,571,TxWx,2013-03-29 15:29:00,
2013-03-29 10:34:00,46.4,16.0,30.32,ENE,59,2.7,2.7,32,0.00,,,0.00,585,TxWx,2013-03-29 15:34:00,
2013-03-29 10:39:00,46.3,16.0,30.31,NNE,28,6.3,7.2,31,0.00,,,0.00,948,TxWx,2013-03-29 15:39:00,
2013-03-29 10:45:00,46.2,15.0,30.32,North,1,6.9,6.9,30,0.00,,,0.00,956,TxWx,2013-03-29 15:45:00,
2013-03-29 10:50:00,47.4,17.0,30.32,North,7,4.8,5.1,31,0.00,,,0.00,605,TxWx,2013-03-29 15:50:00,
2013-03-29 10:55:00,46.8,16.0,30.32,NE,54,4.2,4.5,30,0.00,,,0.00,454,TxWx,2013-03-29 15:55:00,
2013-03-29 11:00:00,47.3,17.0,30.32,NE,47,3.0,3.0,31,0.00,,,0.00,600,TxWx,2013-03-29 16:00:00,
2013-03-29 11:05:00,46.9,16.0,30.32,ENE,77,2.4,2.4,30,0.00,,,0.00,889,TxWx,2013-03-29 16:05:00,
2013-03-29 11:11:00,47.6,17.0,30.32,NE,40,3.9,3.9,31,0.00,,,0.00,520,TxWx,2013-03-29 16:11:00,
2013-03-29 11:16:00,47.9,17.0,30.32,NNW,332,2.7,2.7,30,0.00,,,0.00,907,TxWx,2013-03-29 16:16:00,
2013-03-29 11:21:00,48.1,17.0,30.32,South,170,1.8,2.1,30,0.00,,,0.00,582,TxWx,2013-03-29 16:21:00,
2013-03-29 11:26:00,48.3,17.0,30.32,West,262,3.3,3.3,30,0.00,,,0.00,990,TxWx,2013-03-29 16:26:00,
2013-03-29 11:31:00,47.3,15.0,30.31,WSW,245,3.3,3.3,29,0.00,,,0.00,681,TxWx,2013-03-29 16:31:00,
2013-03-29 11:37:00,48.3,17.0,30.32,WSW,250,3.0,3.0,30,0.00,,,0.00,539,TxWx,2013-03-29 16:37:00,
2013-03-29 11:42:00,47.9,17.0,30.31,West,261,3.3,3.6,30,0.00,,,0.00,763,TxWx,2013-03-29 16:42:00,
2013-03-29 11:47:00,48.0,17.0,30.31,SW,227,2.4,2.4,30,0.00,,,0.00,796,TxWx,2013-03-29 16:47:00,
2013-03-29 11:52:00,48.5,18.0,30.31,SW,215,5.4,6.0,30,0.00,,,0.00,935,TxWx,2013-03-29 16:52:00,
2013-03-29 11:57:00,48.4,16.0,30.31,NW,305,1.8,2.1,29,0.00,,,0.00,720,TxWx,2013-03-29 16:57:00,
2013-03-29 12:02:00,49.7,20.0,30.31,WNW,285,3.9,3.9,32,0.00,,,0.00,946,TxWx,2013-03-29 17:02:00,
2013-03-29 12:07:00,49.4,18.0,30.31,NW,304,0.9,1.2,30,0.00,,,0.00,884,TxWx,2013-03-29 17:07:00,
2013-03-29 12:13:00,49.7,19.0,30.30,NW,325,2.4,2.7,30,0.00,,,0.00,867,TxWx,2013-03-29 17:13:00,
2013-03-29 12:18:00,50.2,18.0,30.30,NE,47,2.4,2.7,29,0.00,,,0.00,858,TxWx,2013-03-29 17:18:00,
2013-03-29 12:24:00,49.2,17.0,30.30,NW,304,3.0,3.0,30,0.00,,,0.00,853,TxWx,2013-03-29 17:24:00,
2013-03-29 12:29:00,48.7,18.0,30.30,West,276,4.2,4.2,30,0.00,,,0.00,854,TxWx,2013-03-29 17:29:00,
2013-03-29 12:34:00,49.0,17.0,30.30,SE,144,1.5,1.8,30,0.00,,,0.00,859,TxWx,2013-03-29 17:34:00,
2013-03-29 12:40:00,49.8,18.0,30.29,WNW,302,0.9,0.9,30,0.00,,,0.00,864,TxWx,2013-03-29 17:40:00,
2013-03-29 12:45:00,50.1,18.0,30.29,NE,51,3.0,3.0,30,0.00,,,0.00,865,TxWx,2013-03-29 17:45:00,
2013-03-29 12:50:00,50.4,18.0,30.29,NW,325,5.1,5.1,29,0.00,,,0.00,863,TxWx,2013-03-29 17:50:00,
2013-03-29 12:55:00,49.6,18.0,30.29,West,272,3.9,3.9,29,0.00,,,0.00,866,TxWx,2013-03-29 17:55:00,
2013-03-29 13:00:00,50.0,18.0,30.29,NW,309,4.2,4.2,29,0.00,,,0.00,864,TxWx,2013-03-29 18:00:00,
2013-03-29 13:05:00,49.5,18.0,30.29,WNW,285,6.0,6.0,29,0.00,,,0.00,864,TxWx,2013-03-29 18:05:00,
2013-03-29 13:10:00,49.6,19.0,30.28,NNE,28,6.0,6.0,30,0.00,,,0.00,865,TxWx,2013-03-29 18:10:00,
2013-03-29 13:15:00,49.4,18.0,30.28,NE,49,6.3,6.9,30,0.00,,,0.00,865,TxWx,2013-03-29 18:15:00,
2013-03-29 13:20:00,49.9,19.0,30.28,NE,43,4.5,4.5,31,0.00,,,0.00,862,TxWx,2013-03-29 18:20:00,
2013-03-29 13:26:00,50.4,18.0,30.28,North,358,8.1,9.0,30,0.00,,,0.00,858,TxWx,2013-03-29 18:26:00,
2013-03-29 13:32:00,50.8,19.0,30.28,NNW,339,3.3,3.3,30,0.00,,,0.00,857,TxWx,2013-03-29 18:32:00,
2013-03-29 13:37:00,50.8,19.0,30.28,NW,306,2.4,3.6,29,0.00,,,0.00,859,TxWx,2013-03-29 18:37:00,
2013-03-29 13:42:00,50.7,19.0,30.28,WNW,288,7.8,7.8,29,0.00,,,0.00,858,TxWx,2013-03-29 18:42:00,
2013-03-29 13:47:00,50.7,18.0,30.28,North,353,5.7,5.7,29,0.00,,,0.00,849,TxWx,2013-03-29 18:47:00,
2013-03-29 13:52:00,50.0,17.0,30.28,WNW,284,6.0,6.3,28,0.00,,,0.00,848,TxWx,2013-03-29 18:52:00,
2013-03-29 13:58:00,50.9,19.0,30.28,NNE,29,6.9,6.9,29,0.00,,,0.00,846,TxWx,2013-03-29 18:58:00,
2013-03-29 14:03:00,50.8,19.0,30.27,NE,37,2.7,2.7,29,0.00,,,0.00,840,TxWx,2013-03-29 19:03:00,
2013-03-29 14:08:00,50.8,18.0,30.27,WNW,297,4.2,6.0,28,0.00,,,0.00,836,TxWx,2013-03-29 19:08:00,
2013-03-29 14:14:00,50.9,18.0,30.27,ENE,67,2.4,2.4,28,0.00,,,0.00,827,TxWx,2013-03-29 19:14:00,
2013-03-29 14:19:00,51.1,17.0,30.27,NNE,15,4.8,4.8,27,0.00,,,0.00,818,TxWx,2013-03-29 19:19:00,
2013-03-29 14:25:00,50.2,17.0,30.26,NE,41,9.6,9.6,28,0.00,,,0.00,811,TxWx,2013-03-29 19:25:00,
2013-03-29 14:30:00,50.2,17.0,30.26,ENE,63,7.2,9.3,28,0.00,,,0.00,800,TxWx,2013-03-29 19:30:00,
2013-03-29 14:35:00,50.4,16.0,30.26,NNE,21,8.4,9.0,27,0.00,,,0.00,794,TxWx,2013-03-29 19:35:00,
2013-03-29 14:40:00,50.8,18.0,30.26,NNE,26,6.6,7.2,28,0.00,,,0.00,786,TxWx,2013-03-29 19:40:00,
2013-03-29 14:45:00,50.4,17.0,30.26,NW,312,0.9,1.2,28,0.00,,,0.00,776,TxWx,2013-03-29 19:45:00,
2013-03-29 14:51:00,50.9,17.0,30.26,NNE,31,5.1,5.1,27,0.00,,,0.00,766,TxWx,2013-03-29 19:51:00,
2013-03-29 14:56:00,50.7,17.0,30.26,NNE,21,8.1,8.1,27,0.00,,,0.00,756,TxWx,2013-03-29 19:56:00,
2013-03-29 15:01:00,50.7,17.0,30.25,West,264,1.2,1.2,27,0.00,,,0.00,745,TxWx,2013-03-29 20:01:00,
2013-03-29 15:06:00,51.7,18.0,30.25,NW,305,3.0,3.3,27,0.00,,,0.00,734,TxWx,2013-03-29 20:06:00,
2013-03-29 15:14:00,51.7,17.0,30.25,ESE,105,2.1,2.1,26,0.00,,,0.00,712,TxWx,2013-03-29 20:14:00,
2013-03-29 15:19:00,51.7,17.0,30.25,ENE,62,4.8,4.8,26,0.00,,,0.00,703,TxWx,2013-03-29 20:19:00,
2013-03-29 15:24:00,51.7,18.0,30.25,NE,47,4.2,4.2,28,0.00,,,0.00,690,TxWx,2013-03-29 20:24:00,
2013-03-29 15:29:00,51.4,17.0,30.24,NNE,27,7.5,7.5,27,0.00,,,0.00,681,TxWx,2013-03-29 20:29:00,
2013-03-29 15:35:00,52.0,18.0,30.25,NNE,16,7.8,8.4,27,0.00,,,0.00,667,TxWx,2013-03-29 20:35:00,
2013-03-29 15:40:00,51.8,18.0,30.24,North,11,10.8,11.1,27,0.00,,,0.00,650,TxWx,2013-03-29 20:40:00,
2013-03-29 15:45:00,52.1,18.0,30.24,NNW,330,2.7,2.7,27,0.00,,,0.00,635,TxWx,2013-03-29 20:45:00,
2013-03-29 15:50:00,51.8,18.0,30.24,North,11,8.1,8.4,27,0.00,,,0.00,620,TxWx,2013-03-29 20:50:00,
2013-03-29 15:56:00,51.3,18.0,30.24,ENE,75,9.6,9.6,28,0.00,,,0.00,606,TxWx,2013-03-29 20:56:00,
2013-03-29 16:01:00,51.4,18.0,30.24,North,1,5.1,5.4,28,0.00,,,0.00,589,TxWx,2013-03-29 21:01:00,
2013-03-29 16:06:00,52.0,19.0,30.24,NE,46,8.7,9.0,28,0.00,,,0.00,575,TxWx,2013-03-29 21:06:00,
2013-03-29 16:11:00,51.3,17.0,30.24,NNE,13,10.8,11.4,27,0.00,,,0.00,557,TxWx,2013-03-29 21:11:00,
2013-03-29 16:16:00,51.6,19.0,30.24,NW,317,3.3,4.8,28,0.00,,,0.00,544,TxWx,2013-03-29 21:16:00,
2013-03-29 16:21:00,51.4,18.0,30.24,NNE,17,9.3,10.5,28,0.00,,,0.00,528,TxWx,2013-03-29 21:21:00,
2013-03-29 16:26:00,51.4,18.0,30.24,North,1,7.8,7.8,28,0.00,,,0.00,513,TxWx,2013-03-29 21:26:00,
2013-03-29 16:31:00,51.5,19.0,30.23,NE,42,6.6,6.9,28,0.00,,,0.00,497,TxWx,2013-03-29 21:31:00,
2013-03-29 16:36:00,51.1,18.0,30.23,North,9,10.2,10.2,28,0.00,,,0.00,480,TxWx,2013-03-29 21:36:00,
2013-03-29 16:42:00,50.8,18.0,30.23,NE,44,9.6,9.6,28,0.00,,,0.00,469,TxWx,2013-03-29 21:42:00,
2013-03-29 16:47:00,51.2,18.0,30.23,North,5,10.5,10.5,28,0.00,,,0.00,452,TxWx,2013-03-29 21:47:00,
2013-03-29 16:52:00,50.8,18.0,30.23,NE,41,6.6,7.5,29,0.00,,,0.00,434,TxWx,2013-03-29 21:52:00,
2013-03-29 16:57:00,51.1,19.0,30.23,NE,40,6.0,6.6,30,0.00,,,0.00,418,TxWx,2013-03-29 21:57:00,
2013-03-29 17:02:00,50.9,18.0,30.23,North,6,6.0,7.2,29,0.00,,,0.00,403,TxWx,2013-03-29 22:02:00,
2013-03-29 17:07:00,51.0,18.0,30.23,NNE,14,6.9,6.9,29,0.00,,,0.00,387,TxWx,2013-03-29 22:07:00,
2013-03-29 17:13:00,50.3,18.0,30.23,North,10,9.6,9.6,29,0.00,,,0.00,368,TxWx,2013-03-29 22:13:00,
2013-03-29 17:18:00,50.4,18.0,30.23,NNE,29,6.9,6.9,29,0.00,,,0.00,354,TxWx,2013-03-29 22:18:00,
2013-03-29 17:23:00,50.8,18.0,30.23,NNE,13,10.2,10.2,29,0.00,,,0.00,341,TxWx,2013-03-29 22:23:00,
2013-03-29 17:28:00,50.1,18.0,30.23,NE,48,5.7,6.3,30,0.00,,,0.00,322,TxWx,2013-03-29 22:28:00,
2013-03-29 17:33:00,49.4,17.0,30.23,NE,35,12.6,12.9,30,0.00,,,0.00,309,TxWx,2013-03-29 22:33:00,
2013-03-29 17:38:00,49.3,17.0,30.23,NNE,26,10.2,10.8,30,0.00,,,0.00,294,TxWx,2013-03-29 22:38:00,
2013-03-29 17:44:00,49.2,17.0,30.23,NNE,25,8.1,9.0,30,0.00,,,0.00,276,TxWx,2013-03-29 22:44:00,
2013-03-29 17:49:00,49.5,17.0,30.23,NNE,21,6.9,6.9,30,0.00,,,0.00,259,TxWx,2013-03-29 22:49:00,
2013-03-29 17:54:00,49.4,18.0,30.23,North,356,4.8,5.1,30,0.00,,,0.00,242,TxWx,2013-03-29 22:54:00,
2013-03-29 17:59:00,49.0,17.0,30.23,NNE,33,7.5,8.1,30,0.00,,,0.00,222,TxWx,2013-03-29 22:59:00,
2013-03-29 18:05:00,48.8,17.0,30.23,NNE,26,8.1,8.1,30,0.00,,,0.00,206,TxWx,2013-03-29 23:05:00,
2013-03-29 18:10:00,48.6,17.0,30.24,ENE,69,6.0,6.6,30,0.00,,,0.00,188,TxWx,2013-03-29 23:10:00,
2013-03-29 18:15:00,48.3,17.0,30.24,NE,35,6.0,6.9,30,0.00,,,0.00,171,TxWx,2013-03-29 23:15:00,
2013-03-29 18:20:00,48.3,17.0,30.24,NE,45,8.7,10.2,30,0.00,,,0.00,151,TxWx,2013-03-29 23:20:00,
2013-03-29 18:25:00,47.8,17.0,30.24,NNE,32,7.2,8.7,30,0.00,,,0.00,132,TxWx,2013-03-29 23:25:00,
2013-03-29 18:30:00,47.8,17.0,30.24,North,8,6.3,6.3,31,0.00,,,0.00,114,TxWx,2013-03-29 23:30:00,
2013-03-29 18:35:00,47.6,18.0,30.24,NNE,33,6.3,6.6,31,0.00,,,0.00,97,TxWx,2013-03-29 23:35:00,
2013-03-29 18:40:00,47.3,17.0,30.24,NE,43,6.6,6.9,31,0.00,,,0.00,79,TxWx,2013-03-29 23:40:00,
2013-03-29 18:46:00,47.1,18.0,30.24,NE,34,6.0,6.6,32,0.00,,,0.00,59,TxWx,2013-03-29 23:46:00,
2013-03-29 18:51:00,46.8,18.0,30.24,NE,43,6.9,7.2,32,0.00,,,0.00,40,TxWx,2013-03-29 23:51:00,
2013-03-29 18:56:00,46.6,18.0,30.24,North,10,4.5,5.1,33,0.00,,,0.00,19,TxWx,2013-03-29 23:56:00,
2013-03-29 19:01:00,46.3,17.0,30.24,NE,52,7.2,7.5,33,0.00,,,0.00,11,TxWx,2013-03-30 00:01:00,
2013-03-29 19:06:00,46.1,17.0,30.24,NE,46,6.0,6.0,33,0.00,,,0.00,7,TxWx,2013-03-30 00:06:00,
2013-03-29 19:11:00,45.8,17.0,30.24,NE,41,5.7,7.2,33,0.00,,,0.00,3,TxWx,2013-03-30 00:11:00,
2013-03-29 19:17:00,45.6,17.0,30.24,North,3,3.3,3.9,33,0.00,,,0.00,1,TxWx,2013-03-30 00:17:00,
2013-03-29 19:22:00,45.4,17.0,30.24,NE,39,5.4,6.0,33,0.00,,,0.00,0,TxWx,2013-03-30 00:22:00,
2013-03-29 19:27:00,45.3,17.0,30.24,NE,45,3.6,3.6,33,0.00,,,0.00,0,TxWx,2013-03-30 00:27:00,
2013-03-29 19:32:00,45.1,17.0,30.24,NE,40,4.5,4.5,34,0.00,,,0.00,0,TxWx,2013-03-30 00:32:00,
2013-03-29 19:37:00,44.9,17.0,30.24,ENE,61,2.7,2.7,34,0.00,,,0.00,0,TxWx,2013-03-30 00:37:00,
2013-03-29 19:42:00,44.7,17.0,30.24,NE,40,3.9,3.9,33,0.00,,,0.00,0,TxWx,2013-03-30 00:42:00,
2013-03-29 19:47:00,44.5,17.0,30.24,NNE,26,4.8,4.8,33,0.00,,,0.00,0,TxWx,2013-03-30 00:47:00,
2013-03-29 19:53:00,44.4,16.0,30.24,NE,37,3.9,3.9,33,0.00,,,0.00,0,TxWx,2013-03-30 00:53:00,
2013-03-29 19:58:00,44.2,16.0,30.24,NNE,29,4.8,5.7,33,0.00,,,0.00,0,TxWx,2013-03-30 00:58:00,
2013-03-29 20:03:00,44.1,16.0,30.24,NE,55,3.0,3.6,33,0.00,,,0.00,0,TxWx,2013-03-30 01:03:00,
2013-03-29 20:08:00,44.0,16.0,30.24,NE,34,3.0,3.6,34,0.00,,,0.00,0,TxWx,2013-03-30 01:08:00,
2013-03-29 20:13:00,43.8,16.0,30.25,NE,53,4.5,5.1,34,0.00,,,0.00,0,TxWx,2013-03-30 01:13:00,
2013-03-29 20:18:00,43.6,16.0,30.25,NE,35,2.7,2.7,34,0.00,,,0.00,0,TxWx,2013-03-30 01:18:00,
2013-03-29 20:23:00,43.4,15.0,30.25,NE,37,4.8,4.8,34,0.00,,,0.00,0,TxWx,2013-03-30 01:23:00,
2013-03-29 20:29:00,43.3,16.0,30.25,NNE,26,4.8,4.8,34,0.00,,,0.00,0,TxWx,2013-03-30 01:29:00,
2013-03-29 20:34:00,43.2,16.0,30.25,NE,44,3.9,4.5,34,0.00,,,0.00,0,TxWx,2013-03-30 01:34:00,
2013-03-29 20:39:00,43.0,16.0,30.25,NNE,29,3.6,3.9,34,0.00,,,0.00,0,TxWx,2013-03-30 01:39:00,
2013-03-29 20:44:00,42.9,16.0,30.25,NE,45,2.1,2.7,34,0.00,,,0.00,0,TxWx,2013-03-30 01:44:00,
2013-03-29 20:49:00,42.7,16.0,30.25,NE,42,2.7,2.7,35,0.00,,,0.00,0,TxWx,2013-03-30 01:49:00,
2013-03-29 20:54:00,42.4,15.0,30.25,NE,41,3.3,3.3,35,0.00,,,0.00,0,TxWx,2013-03-30 01:54:00,
2013-03-29 21:00:00,42.3,15.0,30.25,NE,46,3.6,3.6,35,0.00,,,0.00,0,TxWx,2013-03-30 02:00:00,
2013-03-29 21:05:00,42.3,15.0,30.25,NE,53,3.0,3.3,35,0.00,,,0.00,0,TxWx,2013-03-30 02:05:00,
2013-03-29 21:10:00,42.2,15.0,30.25,NE,43,2.7,3.0,35,0.00,,,0.00,0,TxWx,2013-03-30 02:10:00,
2013-03-29 21:15:00,42.1,15.0,30.25,NE,41,2.7,2.7,35,0.00,,,0.00,0,TxWx,2013-03-30 02:15:00,
2013-03-29 21:20:00,42.0,15.0,30.25,NE,49,3.3,3.3,35,0.00,,,0.00,0,TxWx,2013-03-30 02:20:00,
2013-03-29 21:26:00,41.9,15.0,30.25,ENE,76,1.2,1.2,35,0.00,,,0.00,0,TxWx,2013-03-30 02:26:00,
2013-03-29 21:31:00,41.7,15.0,30.26,ENE,60,2.1,2.1,35,0.00,,,0.00,0,TxWx,2013-03-30 02:31:00,
2013-03-29 21:36:00,41.6,15.0,30.26,ENE,59,2.4,2.4,35,0.00,,,0.00,0,TxWx,2013-03-30 02:36:00,
2013-03-29 21:41:00,41.5,15.0,30.26,ENE,67,0.9,1.2,36,0.00,,,0.00,0,TxWx,2013-03-30 02:41:00,
2013-03-29 21:47:00,41.3,15.0,30.26,NE,54,0.9,1.2,36,0.00,,,0.00,0,TxWx,2013-03-30 02:47:00,
2013-03-29 21:52:00,41.1,15.0,30.26,NE,56,0.9,1.5,36,0.00,,,0.00,0,TxWx,2013-03-30 02:52:00,
2013-03-29 21:57:00,41.0,15.0,30.26,NE,40,0.6,0.9,36,0.00,,,0.00,0,TxWx,2013-03-30 02:57:00,
2013-03-29 22:02:00,40.8,15.0,30.26,NE,48,1.8,1.8,36,0.00,,,0.00,0,TxWx,2013-03-30 03:02:00,
2013-03-29 22:07:00,40.7,15.0,30.26,NE,54,1.2,1.2,37,0.00,,,0.00,0,TxWx,2013-03-30 03:07:00,
2013-03-29 22:13:00,40.6,15.0,30.25,NE,56,0.9,1.2,37,0.00,,,0.00,0,TxWx,2013-03-30 03:13:00,
2013-03-29 22:18:00,40.4,15.0,30.25,East,79,1.2,1.2,37,0.00,,,0.00,0,TxWx,2013-03-30 03:18:00,
2013-03-29 22:23:00,40.2,15.0,30.25,ENE,69,0.6,0.9,38,0.00,,,0.00,0,TxWx,2013-03-30 03:23:00,
2013-03-29 22:28:00,40.0,15.0,30.25,East,83,1.5,1.5,38,0.00,,,0.00,0,TxWx,2013-03-30 03:28:00,
2013-03-29 22:33:00,39.8,15.0,30.25,East,80,0.9,1.2,38,0.00,,,0.00,0,TxWx,2013-03-30 03:33:00,
2013-03-29 22:38:00,39.6,16.0,30.25,East,80,0.9,0.9,39,0.00,,,0.00,0,TxWx,2013-03-30 03:38:00,
2013-03-29 22:43:00,39.3,15.0,30.25,East,87,0.3,0.3,39,0.00,,,0.00,0,TxWx,2013-03-30 03:43:00,
2013-03-29 22:49:00,39.0,15.0,30.25,East,87,0.6,0.6,39,0.00,,,0.00,0,TxWx,2013-03-30 03:49:00,
2013-03-29 22:54:00,38.9,15.0,30.25,NE,43,1.5,1.5,40,0.00,,,0.00,0,TxWx,2013-03-30 03:54:00,
2013-03-29 22:59:00,39.0,16.0,30.25,NNE,29,0.9,0.9,41,0.00,,,0.00,0,TxWx,2013-03-30 03:59:00,
2013-03-29 23:00:00,38.9,16.0,30.25,NNE,28,0.6,0.6,41,0.00,,,0.00,0,TxWx,2013-03-30 04:00:00,
2013-03-29 23:01:00,39.0,16.0,30.25,North,11,0.3,0.3,40,0.00,,,0.00,0,TxWx,2013-03-30 04:01:00,
2013-03-29 23:06:00,38.9,15.0,30.25,North,9,0.6,0.6,40,0.00,,,0.00,0,TxWx,2013-03-30 04:06:00,
2013-03-29 23:11:00,38.6,16.0,30.25,North,10,0.0,0.0,41,0.00,,,0.00,0,TxWx,2013-03-30 04:11:00,
2013-03-29 23:16:00,38.3,15.0,30.25,North,10,0.0,0.0,41,0.00,,,0.00,0,TxWx,2013-03-30 04:16:00,
2013-03-29 23:21:00,37.9,15.0,30.25,North,10,0.0,0.0,41,0.00,,,0.00,0,TxWx,2013-03-30 04:21:00,
2013-03-29 23:26:00,37.5,16.0,30.25,North,10,0.0,0.0,42,0.00,,,0.00,0,TxWx,2013-03-30 04:26:00,
2013-03-29 23:32:00,37.5,16.0,30.25,North,359,1.2,1.2,44,0.00,,,0.00,0,TxWx,2013-03-30 04:32:00,
2013-03-29 23:37:00,37.6,17.0,30.25,NNW,336,0.3,0.3,44,0.00,,,0.00,0,TxWx,2013-03-30 04:37:00,
2013-03-29 23:42:00,37.5,16.0,30.25,NNW,331,1.2,1.5,44,0.00,,,0.00,0,TxWx,2013-03-30 04:42:00,
2013-03-29 23:47:00,37.5,16.0,30.25,NNW,334,0.9,1.2,44,0.00,,,0.00,0,TxWx,2013-03-30 04:47:00,
2013-03-29 23:52:00,37.3,16.0,30.24,NNW,329,0.3,0.3,43,0.00,,,0.00,0,TxWx,2013-03-30 04:52:00,
2013-03-29 23:57:00,37.0,16.0,30.24,NNW,332,0.3,0.3,44,0.00,,,0.00,0,TxWx,2013-03-30 04:57:00,